Wind_Speed
9 8 9 9 10 10 10 11 12 12 12 12 13 13 13 13 14 13 13 13 13 13 13 13 15 15 15 16 17 17 19 18 19 15 17 17 12 12 11 8 9 11 13 13 13 12 13 13 12 13 11 9 7 7 9 9 7 6 5 6 7 7 8 5 5 5 4 8 7 6 6 3 3 4 4 5 7 9 2 9 14 12 11 10 9 9 12 16
9 9 9 9 9 10 10 11 12 12 13 13 13 13 14 14 14 14 14 14 14 14 13 14 14 14 15 16 17 17 18 19 19 20 23 22 16 14 14 13 11 10 14 14 15 16 13 11 12 12 9 7 7 8 9 8 7 7 6 6 8 9 5 6 7 5 6 7 5 3 3 1 3 4 4 7 6 5 2 13 13 12 11 9 9 9 11 13
10 10 9 10 10 10 11 11 12 12 13 13 13 13 14 14 14 14 14 14 14 14 14 14 14 15 15 16 17 15 16 19 16 17 21 21 19 16 14 13 13 13 16 15 14 15 13 11 12 11 9 8 7 9 9 8 7 7 7 6 10 8 5 6 4 5 5 5 5 3 4 2 6 4 4 6 8 8 3 12 9 11 9 7 9 8 10 12
10 10 10 10 10 10 11 11 12 12 13 14 14 14 14 14 14 14 14 14 14 14 14 14 14 14 14 16 15 13 14 16 8 3 8 15 17 15 11 9 12 15 17 16 13 14 14 11 12 11 9 8 8 9 8 7 6 7 8 9 11 5 6 4 3 6 5 5 5 5 4 4 6 4 4 8 8 6 3 8 8 11 9 7 8 8 10 10
9 10 10 10 10 11 11 11 12 12 13 13 14 14 15 15 14 14 14 14 14 14 15 14 14 13 14 16 13 12 11 7 1 8 13 14 12 9 8 7 11 16 17 16 14 13 15 13 11 10 8 8 8 8 8 9 7 7 9 13 14 9 8 3 4 4 4 6 7 8 8 6 6 4 6 9 9 4 6 6 11 14 9 8 7 8 9 9
9 10 10 10 10 11 11 11 12 12 13 14 14 15 15 15 15 15 15 14 14 15 15 14 13 13 14 14 11 9 7 2 4 9 14 11 8 6 6 6 12 17 16 15 14 14 14 13 11 9 8 8 10 9 8 11 9 8 9 12 14 11 9 4 2 2 3 5 8 8 7 7 6 6 8 8 11 4 8 5 9 14 11 10 7 7 7 8
10 10 10 10 10 11 11 11 12 13 14 14 15 15 15 16 15 15 15 15 15 14 15 14 13 13 13 14 10 7 8 10 6 8 10 5 7 7 6 8 15 17 15 15 14 13 13 13 11 9 9 9 11 11 10 11 11 10 9 11 12 9 9 8 4 3 4 6 7 7 7 8 7 8 9 6 11 4 7 4 10 13 9 10 8 7 6 6
10 10 11 11 11 11 12 12 12 13 14 14 15 16 16 16 16 16 15 15 15 14 14 13 13 12 12 12 8 7 10 12 6 9 5 4 6 7 9 12 17 17 15 16 14 12 12 13 12 10 9 10 10 11 10 10 11 12 11 12 11 7 7 9 7 5 8 7 7 8 8 11 9 10 10 6 10 4 4 4 12 12 8 8 7 7 6 6
10 10 10 11 12 12 12 12 12 13 14 15 15 16 16 16 16 16 15 15 15 14 13 13 13 10 8 8 7 7 4 3 7 6 2 4 6 9 13 13 17 18 14 15 15 14 11 10 12 11 11 11 9 9 9 9 8 9 13 13 11 10 8 8 8 8 9 7 7 9 10 11 10 9 9 11 12 2 5 5 12 12 8 6 6 5 4 5
10 10 10 11 12 12 12 13 13 13 14 15 16 16 17 16 16 16 16 15 14 14 13 12 12 9 8 7 8 6 0 5 7 6 6 7 9 15 15 14 19 18 14 14 15 15 12 10 12 11 11 10 9 9 7 9 6 4 10 12 12 12 10 9 9 9 9 8 8 10 11 10 10 9 7 12 10 4 5 9 14 10 7 6 5 4 3 4
10 10 10 11 12 13 13 13 13 14 14 15 16 17 17 17 17 16 16 15 14 14 13 12 11 8 8 8 7 5 0 2 4 7 9 11 14 17 15 15 20 18 14 13 13 14 13 12 9 7 7 6 8 9 8 12 10 7 8 8 11 11 11 12 10 9 7 7 10 10 11 11 11 9 9 14 8 7 5 10 11 7 8 6 3 3 3 2
11 10 10 11 12 13 14 14 14 14 15 16 16 17 17 17 17 16 16 15 14 14 12 11 7 4 8 7 10 13 7 3 4 7 10 13 15 15 13 15 18 16 13 11 10 11 12 11 8 8 5 3 7 8 6 11 12 11 9 7 11 11 12 14 12 11 8 8 10 8 10 10 11 12 13 16 7 8 7 9 8 7 10 8 5 4 4 3
12 11 11 12 12 14 14 14 15 15 16 17 17 18 18 17 17 16 16 15 13 12 12 10 4 5 7 6 11 17 13 7 6 7 11 13 13 14 13 14 17 16 13 10 9 10 12 10 8 10 8 6 8 4 4 7 9 10 9 7 10 9 11 14 14 12 11 10 6 4 6 7 12 14 16 17 9 9 8 10 8 8 9 8 8 6 6 7
12 12 12 13 13 14 15 15 15 16 17 18 18 18 18 17 17 17 16 14 10 9 11 8 5 5 6 8 13 11 10 7 8 9 12 14 13 13 13 14 15 14 11 8 6 7 10 9 8 9 9 10 9 6 6 7 6 8 9 8 7 7 10 13 14 12 11 10 6 4 5 7 13 14 19 18 12 11 9 12 12 9 9 8 8 8 7 9
12 12 13 13 14 15 15 15 16 17 17 18 19 18 17 16 17 17 13 9 8 8 7 5 8 6 4 10 14 8 11 8 11 13 13 16 14 12 13 14 14 11 8 7 5 4 6 7 7 7 8 11 10 8 7 7 6 7 7 7 7 8 9 8 13 12 10 7 8 8 7 8 14 14 18 14 12 11 9 13 15 11 11 9 7 6 6 7
13 13 13 13 14 15 16 16 16 17 18 19 19 18 16 16 17 14 8 6 5 5 5 6 11 11 5 6 4 9 13 12 13 14 14 16 14 12 12 12 12 10 7 8 6 4 7 7 7 8 9 9 8 8 7 6 7 7 7 7 8 9 6 6 13 13 11 7 9 10 8 9 8 4 7 12 11 12 9 12 15 11 10 9 5 5 6 6
13 13 14 14 14 15 16 16 17 17 18 19 19 17 14 14 13 9 5 4 3 6 10 9 9 11 7 5 3 8 14 14 14 15 15 16 14 13 13 9 10 10 8 8 7 6 7 7 6 7 8 8 7 8 7 7 7 7 7 7 9 11 7 6 12 13 12 8 7 10 8 11 7 3 7 10 9 11 9 11 15 13 9 8 3 3 4 6
13 14 14 14 14 16 16 16 17 17 19 20 18 15 13 12 9 7 6 4 4 7 12 12 8 6 7 9 11 12 14 14 14 17 16 16 16 14 14 10 9 10 8 8 8 8 7 6 6 6 7 8 8 8 7 8 9 9 9 7 7 11 8 3 9 10 8 8 7 10 9 10 9 5 7 10 9 9 9 9 14 13 10 10 4 3 8 6
13 14 15 15 15 16 16 16 16 17 19 19 16 13 11 8 6 7 9 8 7 6 6 6 9 6 5 5 14 10 10 14 14 16 17 16 16 14 14 12 10 11 9 6 8 10 7 6 7 7 7 8 10 11 11 13 14 8 6 7 7 7 8 7 8 10 6 6 7 9 9 9 10 10 10 10 9 8 9 5 12 11 10 10 8 5 8 7
13 14 15 15 15 16 17 16 16 18 18 18 18 13 7 4 3 5 8 10 12 11 9 5 14 12 8 4 10 6 10 12 12 15 18 17 15 13 12 11 11 10 9 8 9 10 8 6 7 8 10 12 13 14 15 18 16 10 10 7 8 8 10 9 8 13 6 3 4 6 8 10 10 11 11 8 9 11 8 6 13 12 11 10 10 7 7 4
13 14 15 15 16 17 17 17 17 17 17 17 16 10 5 4 4 1 2 9 16 19 18 12 13 15 13 9 8 12 9 8 10 13 18 18 16 13 10 11 11 9 10 12 9 9 9 8 9 12 13 14 14 15 15 18 16 11 10 8 7 6 6 8 5 11 11 5 4 8 10 11 10 11 12 12 10 11 10 8 10 14 14 12 12 11 10 6
13 14 15 15 16 17 17 17 17 17 15 14 12 10 8 8 6 5 5 7 12 17 19 17 16 14 14 12 5 9 8 9 11 13 17 18 15 12 11 12 11 9 11 13 9 8 9 9 12 14 14 14 14 14 14 16 14 8 8 8 6 5 5 8 9 6 9 5 4 8 9 10 11 12 12 13 14 8 9 10 10 11 13 13 15 15 13 11
13 14 15 15 16 18 17 18 17 16 15 12 12 13 10 8 7 8 7 7 10 14 16 16 16 14 14 13 7 7 9 9 11 13 18 17 14 12 12 12 12 11 12 12 10 8 7 9 15 16 14 14 14 14 12 12 10 6 7 8 6 8 7 7 5 5 3 2 2 5 9 9 10 11 12 13 14 13 10 12 12 11 11 13 15 15 13 13
13 14 15 15 17 17 17 19 17 15 14 14 16 17 12 8 7 9 7 6 8 10 13 15 15 13 14 14 12 12 11 9 10 12 19 15 13 12 12 12 12 12 11 14 15 11 10 13 17 17 15 15 15 13 10 7 6 7 9 10 8 10 11 10 7 3 2 3 1 5 9 7 10 11 10 10 10 14 16 12 12 11 12 12 14 16 14 13
13 14 15 16 16 17 18 18 14 11 10 13 16 16 9 6 5 7 6 5 6 7 12 14 12 12 16 16 13 13 12 11 12 10 18 17 14 11 10 10 9 11 13 16 15 12 12 14 15 16 16 17 15 11 10 8 6 8 11 13 13 13 13 13 13 8 5 3 5 8 8 6 9 13 12 11 10 13 15 12 10 11 12 12 12 15 15 14
13 14 15 15 16 18 15 9 8 9 8 11 8 3 3 3 4 6 5 4 5 5 9 10 8 9 13 14 11 10 11 12 14 13 17 18 16 11 9 8 7 10 13 13 11 8 9 14 12 10 11 13 12 9 10 11 8 7 9 12 15 15 15 15 15 11 5 4 6 8 8 5 7 11 12 13 14 15 14 12 11 10 10 11 8 11 12 14
13 14 15 15 15 15 9 7 10 12 6 3 1 3 2 3 4 6 4 4 5 6 10 8 6 9 11 11 12 11 7 7 12 16 16 18 16 13 11 10 8 9 10 8 8 7 9 15 13 10 9 7 8 8 10 12 9 7 9 12 15 17 17 15 12 9 6 6 9 10 10 8 6 7 9 11 13 14 14 14 14 10 10 10 7 12 13 13
13 14 14 15 14 11 10 12 15 11 5 7 5 3 3 4 5 4 3 4 3 7 9 6 5 8 10 11 14 14 7 3 10 15 17 19 17 12 12 13 11 11 12 9 8 7 10 14 13 12 11 8 8 10 11 13 10 9 12 11 11 12 10 9 7 8 8 7 9 10 11 9 6 6 9 12 12 10 11 12 9 9 10 11 8 14 13 11
13 14 15 16 14 10 11 13 13 12 10 9 5 4 5 5 5 3 4 4 4 6 6 5 6 8 10 10 14 16 11 6 7 12 16 18 16 12 10 13 14 13 15 13 11 8 9 12 12 10 9 9 10 11 13 14 10 10 13 8 5 9 8 6 7 7 8 8 9 10 11 9 6 6 7 7 7 6 9 10 7 7 9 5 6 12 9 8
14 14 14 15 13 8 8 12 14 12 10 8 6 6 6 5 3 4 3 2 4 6 6 5 7 10 11 11 12 15 14 10 5 10 15 14 15 14 10 11 14 12 13 14 13 12 8 10 10 9 10 10 11 12 13 13 10 10 11 7 6 7 6 7 7 7 7 8 10 12 13 10 7 6 4 1 3 5 5 3 4 2 2 6 7 11 8 8
15 15 15 14 13 10 9 8 7 7 6 6 6 6 6 4 3 5 4 1 4 7 9 7 10 12 14 13 11 12 14 11 7 10 13 11 13 13 10 9 10 9 10 10 11 13 12 10 8 8 10 9 10 11 11 10 9 8 8 5 5 5 6 7 7 7 7 8 10 12 14 13 10 5 0 4 7 6 5 3 5 7 7 8 4 8 9 8
16 17 17 16 14 14 14 8 4 9 5 5 5 5 5 4 5 6 4 1 2 7 7 9 11 12 15 14 11 14 13 10 9 10 11 11 10 11 11 9 7 8 9 8 10 11 12 11 10 9 8 9 10 9 8 8 8 8 7 6 6 5 6 7 6 7 7 8 10 12 13 10 5 2 7 7 6 6 5 5 3 3 4 2 2 5 6 3
18 19 19 17 15 18 20 15 10 11 8 6 5 5 4 5 6 8 7 4 3 5 6 10 13 12 14 13 11 14 13 10 12 11 11 12 10 11 15 14 12 10 8 8 9 9 9 10 14 13 9 11 13 9 7 8 9 10 8 7 7 6 5 6 6 6 7 8 9 12 12 7 2 6 7 5 4 5 5 5 4 3 1 4 4 6 6 6
21 21 20 19 18 21 20 16 13 11 8 6 5 5 6 7 6 8 10 6 4 6 3 6 11 9 11 10 10 12 11 10 13 13 12 13 10 9 13 16 17 13 8 8 8 8 9 9 12 13 8 11 15 13 10 9 9 10 8 8 8 6 7 6 5 6 7 6 6 8 9 4 2 2 3 4 5 6 5 5 5 5 2 2 2 6 6 5
22 20 20 19 20 21 20 17 13 10 8 6 5 6 8 6 6 8 7 2 3 6 5 5 5 7 9 9 11 11 9 9 13 14 11 11 10 9 10 13 17 15 9 8 6 7 11 8 9 12 9 12 15 14 14 11 8 8 9 9 8 8 7 5 5 5 4 4 4 4 2 4 3 6 4 4 5 6 5 5 5 4 4 3 2 3 5 3
21 16 14 16 17 15 16 16 14 11 8 5 6 7 7 7 6 3 4 5 2 2 4 5 6 8 8 8 10 12 10 8 10 11 9 11 12 12 11 11 15 17 12 8 5 5 9 7 8 12 13 14 14 13 14 12 7 6 8 9 8 10 9 5 6 5 3 4 4 4 2 5 5 6 5 4 5 6 5 6 6 5 5 4 4 4 2 2
18 14 10 15 16 12 14 16 13 11 8 5 7 7 6 9 7 1 5 6 4 1 1 3 7 8 7 7 8 11 11 7 8 9 8 10 10 12 14 11 14 19 17 11 6 5 6 6 8 13 14 14 13 13 15 15 11 6 6 8 8 10 10 6 5 5 6 6 5 6 6 4 4 3 5 4 3 5 5 6 6 6 8 6 6 8 8 6
16 13 10 12 14 13 15 16 14 11 6 5 8 9 8 7 4 1 4 6 4 1 4 6 5 6 8 7 7 11 11 8 8 8 7 8 8 10 13 12 13 17 19 16 8 4 5 5 8 13 13 12 12 12 12 13 15 11 7 6 6 7 7 5 4 5 6 6 4 7 8 1 2 0 3 3 2 4 6 7 7 7 9 8 6 8 10 10
13 9 6 8 11 14 16 16 13 8 5 7 7 7 8 8 4 1 4 5 5 2 5 7 5 5 7 6 5 8 10 7 7 7 7 7 5 4 6 9 13 15 18 17 9 4 4 4 6 10 11 10 10 10 9 9 13 13 10 8 6 5 5 5 5 5 6 6 5 7 6 2 3 3 2 2 3 6 7 5 4 6 9 9 7 7 9 9
8 5 2 9 12 13 16 15 10 6 6 8 7 6 9 8 3 2 2 4 5 3 5 7 5 4 5 6 8 5 6 6 6 6 7 5 4 4 6 7 10 12 14 16 12 7 6 3 4 7 9 10 8 8 8 9 9 10 10 9 7 5 5 5 3 4 6 5 4 6 3 3 2 3 2 3 3 6 7 5 2 6 10 10 9 8 8 8
7 4 2 9 12 15 16 10 7 6 6 7 8 10 7 2 2 2 3 3 5 4 5 6 6 5 4 5 7 3 4 5 6 6 6 3 3 3 5 9 7 6 9 12 12 8 5 5 5 7 7 8 8 10 12 13 11 10 9 9 9 8 7 6 4 4 5 5 4 3 0 1 2 4 3 4 5 5 5 5 5 7 10 9 9 9 7 6
5 3 4 11 15 17 13 6 6 6 7 7 9 8 1 3 3 2 1 4 5 5 5 5 7 6 5 5 5 4 4 5 5 6 5 1 2 2 6 12 11 6 5 7 9 7 4 3 5 7 7 8 10 11 13 15 15 12 10 10 10 8 7 7 5 3 4 6 5 1 3 2 2 2 5 6 8 7 4 5 6 8 9 9 9 8 7 5
4 2 6 13 16 15 9 6 7 7 7 6 5 4 3 2 6 5 2 5 6 5 5 4 6 6 5 6 6 5 5 4 4 5 2 3 3 3 5 9 10 8 3 4 6 4 4 3 5 6 6 9 11 8 7 12 14 12 10 10 10 10 10 9 4 3 3 2 2 1 1 2 2 4 5 5 9 9 6 6 7 8 8 8 8 8 6 6
2 1 4 11 15 12 6 5 6 6 9 5 3 6 2 1 6 5 3 5 5 3 4 4 5 5 5 5 5 6 5 3 4 5 2 3 2 2 4 5 7 7 5 4 4 2 3 4 5 6 6 7 9 6 6 10 11 8 7 8 11 14 12 6 1 4 3 3 4 1 1 2 4 4 4 5 8 8 6 6 8 8 8 7 7 6 6 7
1 1 2 8 12 9 5 5 3 5 7 5 2 7 5 3 5 4 4 4 3 2 3 4 4 4 4 5 4 6 8 5 3 5 1 3 2 2 5 6 4 5 5 8 7 4 4 4 5 7 7 6 6 5 4 4 3 4 6 8 12 16 9 2 2 2 2 3 5 3 1 4 6 5 4 5 7 7 6 7 7 8 8 7 6 5 7 8
1 2 3 6 7 6 5 6 7 6 5 4 3 7 7 5 5 4 4 5 3 2 3 3 5 4 4 5 6 6 8 7 6 7 3 3 2 4 8 12 10 5 4 7 8 3 2 4 3 4 4 2 3 4 7 7 3 4 9 8 9 12 7 3 2 2 1 1 2 0 6 8 6 6 7 6 7 7 6 7 6 7 7 6 6 7 8 8
1 1 3 5 5 6 6 6 9 6 2 3 4 4 7 7 4 4 4 5 4 3 5 4 4 4 4 5 5 5 7 8 8 8 3 5 5 4 9 12 10 10 6 5 6 4 0 2 3 4 4 3 3 4 8 10 6 4 9 11 12 13 9 2 2 3 3 3 2 1 6 10 9 9 9 9 8 7 7 7 6 6 6 6 7 8 9 9
3 2 4 5 4 5 5 6 7 5 1 3 3 1 4 6 4 4 4 5 5 3 2 3 5 6 6 4 3 4 6 7 7 6 2 5 6 5 7 8 4 10 7 2 3 3 0 1 4 5 5 4 4 5 8 8 5 4 7 9 12 15 13 7 7 9 6 4 2 4 5 9 8 7 10 11 9 8 8 7 6 7 7 7 8 9 10 10
2 2 4 6 4 2 1 1 3 3 3 3 2 1 3 5 4 4 4 3 4 3 3 3 5 7 6 3 4 4 3 4 5 5 4 5 5 3 4 4 4 7 3 2 1 1 1 1 3 4 4 5 4 5 9 10 5 3 7 10 11 12 11 8 8 9 8 6 3 4 7 9 7 8 10 11 10 9 8 8 8 9 9 8 9 10 11 11
2 2 2 4 2 2 1 1 2 3 2 1 1 3 3 4 3 3 3 4 3 3 3 3 5 7 6 3 3 2 2 2 3 3 4 3 2 2 1 1 3 4 2 1 1 0 2 2 1 1 3 4 3 2 7 10 4 3 7 10 11 10 9 6 7 8 7 5 5 8 9 6 5 7 9 10 10 9 9 9 9 9 9 9 10 11 11 12
7 9 7 4 1 2 2 2 2 2 3 2 2 2 1 3 3 2 4 3 3 3 4 6 4 5 7 5 3 1 2 2 3 3 3 3 0 2 2 3 4 3 1 1 1 1 3 3 3 4 4 4 2 2 3 7 5 2 6 10 9 7 5 5 6 7 4 5 8 9 6 3 4 7 9 10 11 10 10 10 8 9 10 10 11 11 11 12
8 11 9 4 1 1 3 3 3 3 2 2 1 2 1 3 4 4 2 6 4 5 4 3 3 3 5 6 4 4 2 3 5 6 5 5 5 3 2 2 4 4 1 1 1 1 2 3 3 3 4 3 0 2 1 2 4 3 4 8 8 6 4 4 8 10 6 3 5 3 4 6 8 8 9 10 11 11 10 8 8 8 9 11 11 11 11 11
Wind_Direction
329 330 330 328 328 328 330 330 328 327 325 324 322 320 320 318 316 317 316 315 318 316 314 316 316 317 318 319 318 318 324 316 304 287 248 247 249 243 250 242 253 242 202 188 194 191 196 211 220 220 223 226 220 235 234 219 228 234 230 242 248 242 243 280 16 15 15 66 62 50 42 326 327 14 342 305 240 238 236 100 92 91 88 82 93 113 128 121
327 328 329 329 330 328 329 329 326 325 323 322 320 319 318 315 316 316 315 316 316 317 316 315 315 316 318 319 319 323 326 309 290 278 257 248 247 246 250 246 254 229 189 190 199 195 198 204 209 211 215 226 209 221 231 206 210 234 235 233 241 247 270 352 19 8 14 40 34 46 62 4 313 336 338 309 296 267 136 103 99 98 101 109 112 116 126 127
325 326 328 328 329 328 328 327 325 324 321 321 319 317 316 314 316 314 314 315 315 316 315 315 315 316 319 319 321 330 325 305 286 272 257 240 230 233 242 243 240 220 192 195 202 198 208 205 202 208 213 228 214 213 220 194 194 226 238 239 236 251 334 356 0 3 13 14 347 348 38 11 280 319 345 307 308 286 155 118 117 114 121 129 124 128 129 138
323 323 324 325 326 326 326 326 323 322 320 318 317 315 313 313 313 313 313 312 313 313 310 312 315 316 320 318 321 335 321 297 284 252 212 207 211 217 233 240 224 211 199 209 219 208 216 214 201 209 219 229 218 213 219 196 192 216 225 243 244 274 339 332 6 7 357 344 331 311 326 307 295 355 325 285 285 278 119 115 126 125 133 137 136 141 141 152
318 319 322 321 322 324 323 323 322 321 319 317 316 314 312 313 312 312 310 310 311 308 307 307 311 318 318 317 325 329 308 286 75 115 146 171 192 208 236 241 208 199 200 220 234 219 220 224 207 208 227 238 225 212 220 212 212 229 229 247 258 288 317 350 27 353 350 324 302 284 282 299 333 339 279 278 280 296 56 77 122 133 145 145 149 140 146 164
312 315 318 316 318 320 319 319 319 318 317 316 315 313 312 312 311 311 308 308 308 304 306 307 312 319 315 316 320 304 275 274 56 131 152 168 198 226 246 226 195 190 201 222 236 226 219 225 214 208 224 238 237 223 218 218 219 240 241 246 257 271 280 301 351 340 355 304 285 284 287 302 319 290 271 272 274 312 47 22 114 128 139 137 146 139 155 174
310 312 312 312 314 315 316 315 317 317 317 316 314 313 312 311 310 310 307 305 303 300 304 306 312 317 318 324 308 257 236 275 293 156 161 198 224 239 232 200 186 187 203 218 227 226 216 222 218 212 223 231 241 234 222 223 222 236 250 252 256 259 259 271 297 329 302 281 277 280 285 287 278 270 268 259 273 311 59 43 98 105 118 129 143 148 171 185
308 311 309 311 311 312 314 312 315 316 315 315 313 312 311 310 309 307 306 303 300 299 300 304 312 319 327 335 311 248 239 256 221 158 174 226 227 226 197 182 181 187 204 215 224 226 216 221 220 215 224 227 237 237 225 228 227 230 246 256 265 271 264 272 283 279 268 263 265 266 263 263 256 263 274 272 274 284 74 83 110 110 109 124 141 148 174 191
303 309 309 310 311 311 311 312 315 314 315 315 312 312 310 309 308 305 304 301 299 299 301 303 309 317 325 321 296 274 264 185 146 150 186 203 211 186 171 172 179 188 203 218 228 227 217 221 226 224 233 243 257 254 232 226 229 227 239 246 255 263 257 254 256 255 256 255 254 255 252 253 249 251 262 259 259 230 89 82 102 111 110 110 121 124 179 193
301 306 309 310 310 310 310 313 314 313 314 313 311 311 308 307 306 303 300 297 299 300 302 304 307 315 309 286 268 264 99 104 122 135 153 170 171 161 166 174 177 188 205 218 224 222 217 216 222 228 244 264 279 275 244 230 241 245 245 249 253 260 261 251 247 249 253 256 253 258 260 257 251 242 238 245 237 142 130 107 93 103 112 94 98 122 218 204
301 303 309 309 309 309 310 312 313 314 312 311 310 308 306 306 303 300 298 298 299 299 299 298 300 305 292 280 265 253 149 124 148 135 148 158 156 162 172 175 177 194 214 224 224 222 226 230 242 248 246 262 266 266 251 244 257 264 258 265 264 263 265 258 253 248 248 259 252 253 260 256 251 241 246 249 204 146 180 124 114 135 125 113 120 191 227 207
303 301 305 308 308 307 309 312 312 312 310 310 308 306 305 303 301 299 298 300 299 296 294 292 291 283 284 277 250 245 249 254 188 153 160 160 161 171 174 173 183 201 219 228 225 230 241 250 272 265 260 284 255 261 260 249 253 258 262 269 264 260 254 247 243 241 233 244 242 237 252 248 242 232 242 251 183 148 188 143 144 142 123 140 165 211 206 183
308 305 305 308 308 307 310 311 312 311 310 309 307 305 303 300 300 299 299 300 299 294 287 283 265 253 272 270 252 243 233 229 202 173 173 174 175 179 178 179 189 204 220 229 218 224 239 252 270 261 269 271 247 288 316 256 246 252 252 253 262 260 246 234 225 226 224 236 226 208 258 249 239 223 229 244 189 168 194 139 129 134 136 155 164 197 190 187
310 309 308 309 309 309 310 311 311 311 309 308 305 302 300 300 300 299 300 298 299 299 284 264 224 237 244 257 274 250 207 207 200 191 187 186 186 185 187 186 194 209 220 239 237 220 232 246 266 268 269 260 260 311 303 254 239 245 242 237 247 257 254 231 206 201 214 224 182 178 259 263 259 227 217 232 185 177 203 142 133 154 161 160 171 196 191 193
310 311 310 309 310 310 310 311 311 310 309 308 303 301 301 299 297 298 299 295 295 292 277 237 207 223 245 260 268 225 190 208 204 200 194 191 192 189 190 185 195 214 210 230 256 235 236 239 243 253 252 249 261 282 266 240 227 230 238 234 225 240 260 217 176 182 209 202 174 208 253 252 268 249 211 203 164 180 203 152 144 155 160 159 178 198 199 202
311 312 310 309 310 311 310 312 312 310 309 306 303 304 304 299 298 297 288 278 287 259 223 211 203 210 264 278 234 187 198 218 209 198 194 197 199 188 187 185 193 210 205 216 238 233 233 234 233 241 246 242 238 247 249 235 222 210 223 241 229 226 239 172 159 181 205 178 177 212 250 256 277 301 164 148 164 198 189 152 146 147 154 154 176 205 197 195
311 312 311 309 310 311 311 311 312 311 309 306 306 307 305 302 300 293 271 242 247 213 209 239 223 202 253 271 193 202 207 211 205 194 193 198 201 190 182 186 197 205 205 212 226 230 222 221 231 234 241 243 228 230 237 233 224 201 212 243 250 241 231 173 163 186 203 187 199 207 233 268 284 36 122 144 194 214 186 160 152 149 137 116 94 288 241 196
311 311 310 308 309 310 311 311 312 311 309 305 305 307 307 306 293 272 260 212 196 220 226 256 260 213 248 242 229 230 201 194 197 192 192 192 201 197 179 186 200 196 202 211 213 218 213 205 221 227 224 231 230 225 224 231 226 201 203 213 248 262 265 191 150 161 180 176 220 230 228 260 266 243 187 175 202 225 225 184 151 145 120 106 114 282 267 217
311 310 310 309 309 311 310 311 312 311 311 309 313 316 308 301 276 245 240 216 190 212 225 208 201 224 320 228 223 229 170 172 186 187 190 187 200 207 186 187 199 194 200 205 197 201 203 198 213 226 222 218 223 224 226 234 234 232 239 223 225 249 253 234 155 134 160 179 215 243 243 251 257 245 213 188 182 201 240 191 137 139 128 129 142 182 240 218
311 309 310 309 308 310 310 311 311 310 310 312 319 319 292 266 255 214 211 218 214 235 269 201 188 231 297 227 195 158 129 162 180 182 188 184 192 206 194 191 199 198 207 206 190 192 199 207 211 216 221 219 218 226 237 242 247 288 315 275 237 233 235 231 156 132 153 206 232 253 262 260 263 261 248 230 189 179 218 185 142 151 154 145 139 168 226 197
311 308 310 309 308 309 309 310 309 307 307 306 310 300 278 313 330 344 210 231 224 231 255 252 220 235 260 257 176 143 148 182 190 184 182 181 188 198 189 193 202 197 213 217 199 188 201 218 220 218 224 226 223 223 238 254 263 290 301 279 262 251 258 272 218 155 148 145 254 267 269 262 259 264 267 269 242 188 182 192 170 167 169 158 151 176 203 167
312 310 311 309 307 307 308 309 304 304 305 297 283 256 269 335 350 332 309 270 246 234 240 246 246 241 244 258 197 161 199 196 195 191 173 175 189 194 181 189 208 200 205 220 207 189 204 223 227 225 226 231 235 229 229 249 260 276 274 263 272 267 265 278 263 180 142 145 229 254 264 262 256 254 253 261 263 236 181 196 219 199 180 170 166 176 182 165
311 311 312 308 308 308 306 305 300 298 291 271 255 248 270 329 342 314 296 280 277 255 238 229 234 235 229 237 204 191 233 204 199 190 168 176 193 200 193 188 210 212 201 213 213 201 203 217 225 227 231 231 236 237 233 246 246 244 257 248 248 260 264 263 231 156 153 269 260 271 275 266 262 255 244 242 251 264 239 201 215 227 210 190 167 162 172 167
311 312 311 309 309 308 307 305 296 282 264 245 246 254 277 320 327 318 306 270 275 263 244 224 220 224 219 223 205 200 227 225 222 186 163 183 199 201 210 197 208 221 209 210 215 218 221 220 215 212 222 230 230 227 227 251 249 222 238 248 248 249 253 260 253 205 233 308 324 273 277 266 261 259 255 246 229 252 259 224 208 225 234 217 169 158 176 171
311 311 310 311 311 309 311 306 288 267 241 233 246 251 269 313 314 321 322 267 258 244 236 219 207 214 209 210 203 201 217 229 243 201 163 186 206 195 211 209 208 222 216 213 217 221 230 238 223 204 209 219 225 220 207 223 250 232 224 234 251 262 266 271 278 267 224 215 206 218 244 253 247 245 245 248 232 239 252 239 223 227 238 234 187 166 171 160
310 310 310 312 312 315 316 302 291 295 260 235 246 253 270 312 329 318 305 259 258 209 194 186 173 190 195 195 189 199 220 220 233 219 171 183 211 207 208 212 204 223 222 213 222 222 227 250 245 221 221 209 211 222 208 213 234 246 229 220 232 252 266 269 279 284 262 269 261 233 250 265 244 242 238 235 232 233 238 229 220 229 245 246 204 162 155 153
309 309 311 309 312 320 318 301 310 312 293 244 35 37 314 317 337 312 276 248 253 175 157 154 157 173 181 182 176 189 224 204 206 220 194 180 203 220 218 215 200 219 233 220 225 211 209 240 233 214 235 208 201 228 213 214 226 238 243 235 227 227 234 243 260 279 275 281 281 264 265 272 262 262 267 261 240 227 233 224 203 205 246 253 196 158 160 163
306 307 310 306 307 304 284 293 303 295 322 17 14 335 338 338 311 285 259 242 208 153 151 137 122 161 180 182 184 197 233 206 184 207 206 183 189 217 222 225 220 209 221 232 235 199 193 236 225 196 225 224 212 232 219 216 226 236 243 249 260 258 251 248 251 260 260 260 264 258 253 257 260 255 268 279 265 240 246 244 209 188 234 254 186 161 167 159
305 306 307 307 304 287 262 270 279 276 302 340 339 319 332 320 285 248 261 250 167 142 148 136 131 167 183 178 190 208 223 233 199 185 194 187 188 217 229 233 238 220 212 225 242 222 191 226 228 196 218 234 223 229 226 219 217 236 245 243 266 278 288 282 262 255 255 252 249 249 250 257 261 244 249 272 277 270 259 260 258 207 219 263 138 153 159 131
304 302 303 309 303 301 283 252 252 274 292 300 310 315 303 284 258 219 218 222 187 163 138 148 171 178 186 180 190 212 215 223 225 176 185 188 188 215 239 233 241 241 219 213 233 247 219 206 221 215 213 225 232 229 228 226 217 227 245 244 228 233 251 260 258 261 260 254 251 248 249 256 262 254 249 231 50 351 293 263 342 22 43 13 77 134 145 131
301 297 299 299 285 301 309 252 250 294 278 278 304 295 269 243 238 225 188 182 219 165 136 163 183 174 185 194 189 200 213 218 214 187 186 186 185 203 228 224 228 246 235 209 215 241 242 214 207 224 221 225 239 232 223 224 216 217 234 246 236 219 225 233 234 238 243 251 255 251 244 242 253 262 110 83 78 48 8 46 50 48 46 7 27 140 156 160
297 294 291 284 274 278 271 245 339 348 322 318 307 260 243 214 222 234 216 262 201 164 170 184 178 177 188 203 201 185 198 211 196 193 191 185 190 196 209 215 201 213 230 217 202 215 236 233 211 210 218 230 242 230 216 213 206 214 220 216 233 235 224 226 225 222 233 246 250 256 254 242 250 37 77 69 57 59 40 42 58 75 81 330 294 149 145 120
295 294 288 278 267 261 254 251 292 318 319 314 280 239 232 222 220 223 221 229 146 141 216 187 164 187 194 200 211 185 187 203 183 189 199 192 199 200 205 216 208 205 220 219 210 203 216 231 222 211 193 207 230 228 211 209 201 208 214 207 219 232 231 227 224 229 243 249 246 252 256 239 129 64 79 89 59 52 45 40 49 62 114 236 196 140 111 75
296 291 282 272 260 254 252 254 267 284 292 277 250 217 218 231 233 222 223 225 144 117 230 192 158 190 205 212 228 192 187 209 187 187 201 195 202 205 202 215 216 215 223 225 223 215 214 221 224 223 188 182 214 230 229 224 206 200 214 226 223 224 242 240 227 237 248 262 278 266 260 255 161 137 72 76 68 49 40 44 49 53 29 276 154 120 108 103
299 288 275 264 256 248 243 242 244 253 264 251 233 217 212 226 236 230 240 257 141 153 195 208 185 211 213 225 242 213 195 214 193 188 203 201 205 210 200 209 216 217 219 222 226 225 225 223 217 223 211 190 203 222 235 238 222 199 206 228 232 228 240 251 252 266 278 287 295 265 266 42 122 172 139 88 81 64 43 45 48 49 47 28 49 101 122 139
300 288 265 245 245 240 224 222 222 224 237 232 223 222 215 230 233 233 316 348 2 191 182 182 209 230 218 212 232 215 193 204 199 192 205 208 207 212 207 201 208 214 219 218 215 221 229 234 220 212 211 213 209 211 227 238 235 211 207 219 230 234 240 249 255 268 284 268 262 244 204 95 131 160 125 111 97 81 60 49 54 44 39 48 44 31 63 91
300 289 258 230 232 222 200 199 198 202 224 231 225 229 229 235 231 158 358 341 344 340 282 215 205 221 224 213 216 200 178 183 206 206 208 209 206 207 210 206 200 208 219 228 224 206 217 246 243 222 212 215 215 210 220 233 239 236 224 223 222 229 239 245 245 241 238 244 245 239 231 161 159 174 115 106 84 90 82 54 49 44 33 34 35 19 13 25
299 295 276 237 214 191 181 181 185 196 217 228 232 246 255 257 255 28 13 343 326 246 255 259 226 214 227 224 208 194 186 184 200 214 216 206 198 198 207 210 200 203 212 222 229 204 210 239 240 232 222 210 211 216 218 225 233 239 242 237 232 228 228 225 227 236 238 244 249 243 243 193 69 210 142 136 112 96 72 39 21 36 41 28 21 20 13 15
289 290 272 213 179 168 169 172 184 201 215 224 231 244 254 262 269 10 14 330 300 284 258 263 266 240 232 250 252 204 195 194 193 217 230 206 195 228 244 216 197 202 207 210 218 202 203 243 246 234 221 205 207 216 218 213 218 233 241 235 241 245 232 221 216 230 243 243 246 248 241 103 42 350 0 54 92 90 78 56 8 34 50 38 33 42 31 22
260 263 205 164 160 160 163 169 188 208 212 222 235 231 232 243 233 125 26 294 275 281 272 275 287 261 228 260 275 224 188 200 203 219 234 218 207 243 273 251 210 207 209 209 214 205 181 190 254 246 215 206 214 209 221 227 207 212 229 229 231 231 234 245 227 221 248 253 250 255 242 101 39 335 18 68 89 98 101 119 108 62 62 52 48 58 54 40
235 256 187 158 158 156 158 172 199 208 214 220 243 246 238 289 338 128 138 245 269 278 280 293 304 300 288 281 276 238 198 221 221 222 227 248 279 246 290 309 285 233 219 217 214 207 186 173 215 252 224 213 227 210 215 235 228 210 214 221 228 227 222 234 231 217 239 253 260 265 285 80 336 338 30 79 87 91 95 103 95 74 68 61 58 60 59 53
241 258 185 160 159 159 165 195 197 199 224 218 236 252 78 47 299 282 154 198 231 251 252 270 285 295 306 295 289 287 265 245 228 223 213 197 341 314 344 341 320 280 248 243 227 205 199 197 208 239 240 234 241 223 213 232 240 233 222 217 226 232 230 235 234 206 218 252 269 215 109 157 220 46 50 66 73 70 71 86 83 70 64 60 60 60 54 53
242 234 166 157 167 175 188 217 193 201 227 218 244 263 88 128 239 247 246 205 206 226 231 250 267 271 278 275 285 289 280 283 284 270 241 105 72 357 0 358 332 312 308 278 261 214 188 220 225 234 246 248 250 249 245 246 242 236 227 221 228 230 231 244 237 160 178 248 282 262 126 154 156 100 83 81 77 69 60 67 68 65 61 55 56 55 43 35
233 271 166 165 180 196 221 228 194 209 219 198 239 249 219 282 243 227 232 213 191 207 236 257 254 249 262 273 287 280 265 287 294 274 282 69 61 345 353 357 343 350 8 346 323 298 218 204 214 232 234 229 236 244 262 257 247 245 236 228 240 237 228 239 188 147 185 191 168 213 283 147 120 99 103 101 87 75 65 63 62 62 59 51 51 50 36 30
215 287 227 184 189 202 233 247 253 267 237 198 222 243 230 240 245 261 302 271 222 218 250 273 273 264 267 274 285 273 262 267 265 254 279 55 48 13 3 339 350 43 21 334 325 297 254 217 208 235 231 219 232 237 256 262 256 297 280 243 248 250 230 112 83 178 209 210 199 206 163 132 113 109 131 120 101 88 75 71 63 61 62 54 50 50 44 41
180 189 204 182 187 210 231 247 259 269 247 195 206 239 234 223 215 228 274 264 243 256 261 264 275 278 274 274 277 272 265 257 245 248 231 105 85 35 23 5 359 25 24 329 320 311 254 248 249 265 265 274 301 309 323 323 312 308 307 304 299 285 256 161 163 231 115 44 309 281 127 125 124 143 148 125 110 104 85 74 66 64 67 61 56 56 56 54
214 210 204 179 181 212 221 230 235 238 225 193 209 228 232 235 217 180 217 241 225 235 256 258 265 267 264 267 271 287 291 271 249 252 228 116 96 61 52 40 2 325 322 326 325 345 1 271 315 325 300 315 355 318 300 305 308 323 326 333 347 342 318 265 85 42 65 80 5 305 136 133 151 163 139 107 96 93 80 71 70 72 73 72 71 67 64 62
219 279 242 224 208 197 208 226 225 220 202 214 224 253 237 236 220 174 192 240 234 201 222 265 266 253 246 253 250 257 281 283 279 284 309 76 67 40 41 53 352 305 316 0 344 343 247 294 3 357 325 329 351 313 284 292 315 347 354 355 3 5 1 8 43 47 58 92 162 221 155 126 134 131 104 93 89 84 78 69 69 71 67 67 69 65 61 59
233 295 237 231 226 164 185 250 205 197 221 229 206 206 243 239 222 197 183 218 251 223 191 232 265 257 244 257 277 263 258 288 313 336 4 40 58 39 20 26 324 311 334 107 76 0 294 298 356 3 337 313 324 327 303 296 305 7 17 19 14 5 10 29 49 61 68 66 94 134 96 79 79 83 87 93 90 84 78 66 61 62 59 56 57 56 55 52
216 258 226 228 218 118 89 280 178 179 200 248 190 176 228 236 214 228 210 184 220 272 259 255 275 279 266 248 278 323 27 2 334 352 0 11 85 124 108 180 258 295 313 150 106 30 246 239 246 303 302 286 291 329 293 288 290 64 38 30 28 11 354 9 50 70 75 69 104 121 98 71 70 84 91 94 89 83 74 62 54 51 49 50 50 49 49 48
258 270 272 273 205 126 169 200 205 203 180 200 206 163 224 243 195 232 283 259 191 207 258 273 284 301 300 292 296 344 89 65 335 324 332 330 252 150 159 196 209 228 278 278 207 227 236 219 223 257 266 271 249 183 258 301 294 139 68 37 34 36 351 341 50 69 92 148 154 145 123 119 125 106 94 88 80 75 69 62 57 49 42 43 46 44 44 47
286 278 268 262 180 177 209 180 177 207 163 108 120 136 172 261 203 169 284 303 262 192 205 286 326 329 294 285 299 322 22 27 332 318 324 310 279 223 175 242 263 264 259 214 202 222 242 234 237 256 263 272 281 157 154 330 280 214 79 28 12 41 55 38 49 49 54 135 167 152 106 121 131 116 96 82 72 67 63 56 55 54 44 39 40 38 40 46
Height
798 797 797 796 795 795 794 793 793 792 792 791 790 790 789 788 786 785 784 782 781 779 779 778 778 777 776 775 774 773 771 770 769 768 765 757 755 756 756 756 756 757 758 759 760 760 760 760 759 757 758 756 756 754 749 746 745 750 759 767 765 757 746 733 732 733 730 734 735 733 733 738 737 730 723 719 722 721 721 725 729 729 731 734 736 739 743 745
798 797 796 795 795 794 793 793 792 792 791 791 790 790 788 787 786 784 784 782 781 779 778 778 777 777 776 775 774 772 771 769 768 763 756 753 755 755 755 755 756 756 756 758 758 757 758 758 756 756 757 756 754 752 750 745 746 754 758 764 760 747 734 726 731 731 730 738 737 734 735 736 737 732 726 729 729 722 728 736 734 736 736 735 737 740 742 745
798 797 796 795 794 793 793 792 792 792 791 791 790 789 788 787 786 784 783 782 780 779 778 778 777 776 775 774 773 773 771 769 765 755 747 749 753 753 754 754 755 756 756 757 756 755 755 754 753 754 756 757 752 749 751 746 747 752 755 761 752 736 731 726 728 730 731 736 738 736 734 737 734 728 728 733 733 726 732 739 738 743 742 738 739 740 743 746
798 797 796 794 794 793 793 792 792 792 791 791 789 789 788 786 785 784 783 781 780 779 778 777 776 776 775 774 773 773 772 769 757 746 743 746 750 752 753 753 753 755 756 756 756 755 753 751 751 752 756 757 750 747 749 746 747 749 751 756 741 730 735 730 727 731 732 734 738 739 737 739 731 727 732 733 736 733 731 733 735 742 741 739 740 739 743 747
797 797 796 795 794 793 793 793 792 791 791 790 789 788 787 786 785 783 782 781 780 778 777 777 776 775 774 773 773 773 774 768 751 743 746 747 749 751 752 752 753 754 755 756 755 753 752 750 749 752 756 756 750 748 749 742 742 748 746 745 736 731 737 732 728 733 734 736 739 739 739 737 730 732 734 732 738 734 727 726 728 735 737 738 739 740 744 747
797 796 796 795 794 793 793 792 792 791 791 789 789 788 787 786 784 783 782 780 779 778 777 776 776 775 774 773 773 774 774 763 746 745 748 747 749 750 751 751 752 754 755 757 755 752 752 749 750 755 757 755 752 748 747 739 739 749 745 738 734 733 736 732 730 734 735 739 741 739 736 733 735 739 732 731 733 724 720 721 724 730 733 736 738 741 745 748
796 795 795 794 794 793 792 792 791 790 790 789 788 787 786 785 783 782 780 779 778 777 777 776 776 775 773 772 771 772 772 757 744 746 747 747 749 748 750 751 751 754 755 756 754 751 751 751 752 753 755 756 752 746 743 738 737 747 747 738 733 731 733 731 730 734 736 740 740 736 736 737 742 741 731 730 727 718 718 720 723 730 732 737 740 743 746 747
795 795 794 794 793 792 792 791 790 789 789 788 787 786 785 784 783 781 779 778 777 776 777 776 776 774 773 772 770 768 764 752 744 746 745 746 747 747 749 750 751 754 754 754 752 750 749 751 751 749 755 752 746 742 738 739 741 744 745 739 733 731 732 731 731 735 736 737 735 735 739 740 738 736 732 731 725 718 718 720 725 733 736 740 743 745 748 748
795 794 793 793 792 792 791 790 789 788 787 786 786 785 784 783 782 780 778 777 776 776 775 775 775 774 774 773 772 767 755 745 744 745 744 745 746 746 748 749 752 753 754 754 750 748 748 750 749 746 750 746 740 739 736 743 746 740 740 737 735 734 731 731 733 735 735 734 734 738 741 737 731 732 735 730 723 718 719 725 729 736 742 744 746 748 749 749
794 793 792 792 791 791 790 789 788 787 786 785 784 783 783 781 780 779 777 776 775 775 775 775 774 773 774 772 772 767 749 742 745 745 744 745 745 746 748 749 751 752 752 751 748 746 745 747 744 740 744 743 742 740 737 742 741 733 735 735 734 734 730 730 733 733 734 733 733 738 741 735 728 733 740 728 718 719 723 730 734 740 746 748 749 750 749 749
793 792 791 791 791 790 789 788 787 786 785 784 783 782 781 780 779 778 776 775 774 774 774 774 773 773 773 771 771 761 745 743 746 745 746 745 745 747 747 749 750 752 751 748 746 744 742 741 738 739 744 744 743 743 738 736 733 732 735 737 735 734 733 731 733 733 734 735 732 734 738 735 730 735 737 723 715 719 725 732 737 742 747 749 750 749 749 750
792 791 790 789 790 789 788 787 785 785 784 783 782 780 779 778 777 776 774 774 773 773 773 772 773 772 772 770 765 753 744 745 745 745 747 745 746 747 747 749 749 750 749 746 745 743 743 741 739 745 746 744 746 747 740 731 732 733 735 743 742 737 737 733 732 732 734 736 728 730 742 741 736 735 729 717 715 720 726 734 739 743 748 751 752 752 751 751
791 790 789 788 788 788 787 785 784 784 782 781 780 778 778 776 775 774 773 772 771 771 772 771 771 771 773 766 751 743 743 745 744 745 746 746 746 746 746 748 748 749 747 745 745 744 745 743 743 747 744 745 748 743 737 731 734 738 737 745 747 744 741 729 728 730 732 733 722 733 755 750 734 728 722 714 715 722 727 735 741 744 747 751 754 755 753 752
790 789 788 787 787 786 785 784 784 782 781 780 778 777 775 774 773 772 771 770 770 770 770 770 771 771 772 760 743 740 743 743 744 744 744 745 745 745 745 746 747 747 746 745 744 744 745 744 745 747 744 745 742 737 738 737 737 741 742 744 747 752 743 721 721 729 732 729 720 737 760 750 730 721 716 711 713 722 728 734 742 744 746 749 752 754 753 752
789 788 787 786 785 785 784 783 782 781 780 778 776 775 773 772 772 770 770 769 768 769 769 769 769 769 767 755 741 740 743 742 743 742 743 743 742 743 743 744 746 745 745 746 745 745 745 745 748 751 748 742 740 744 747 744 740 742 750 752 746 748 738 717 716 725 731 728 722 739 755 745 727 713 706 706 712 722 727 733 739 742 745 749 751 751 753 751
788 787 786 785 784 784 783 782 781 779 778 776 774 773 771 771 769 769 769 767 768 768 769 769 767 766 764 751 740 740 741 740 740 741 742 742 741 742 743 744 745 745 746 746 746 746 745 746 748 749 747 743 745 751 750 749 746 741 749 753 743 740 735 724 720 720 723 727 728 739 747 740 725 709 702 707 715 721 726 732 737 741 744 748 752 752 753 753
787 786 785 784 783 782 782 780 779 778 777 775 773 771 770 769 768 768 767 767 767 767 768 766 762 764 758 744 740 739 737 737 738 739 740 741 741 741 743 744 744 745 745 746 747 746 746 748 749 748 747 747 745 748 757 762 754 744 744 746 739 732 729 728 728 720 717 726 733 736 739 737 725 714 710 713 717 719 725 733 735 738 744 750 755 756 754 753
786 786 784 783 782 781 780 779 778 777 775 773 771 770 769 768 767 767 767 767 767 769 769 763 762 765 752 738 738 733 729 734 735 736 739 740 741 740 742 744 744 745 747 749 748 748 749 748 750 752 750 750 746 747 761 762 747 741 741 742 740 730 724 726 728 722 720 729 736 736 738 735 725 718 716 715 716 720 723 728 734 737 744 751 757 765 764 756
786 784 783 782 781 780 779 778 777 776 774 772 770 769 767 767 766 766 766 766 765 764 760 755 756 755 741 731 730 725 725 731 733 735 737 738 740 739 739 742 743 745 751 754 752 748 749 751 754 758 756 752 747 744 749 744 731 731 730 730 735 734 727 722 721 719 720 732 738 737 737 733 728 722 718 715 716 722 723 724 734 739 743 750 756 765 766 758
785 784 782 781 780 779 778 777 777 775 774 772 770 769 766 763 761 761 763 762 757 749 742 742 744 740 731 726 724 725 727 730 732 733 735 736 739 738 738 740 742 746 750 752 751 745 746 756 759 758 753 746 742 739 736 730 725 727 728 726 726 729 725 715 717 719 718 732 739 735 736 733 729 724 717 714 715 721 725 728 736 740 742 747 752 756 757 756
784 783 781 780 779 778 777 777 776 774 774 772 772 770 762 755 754 756 757 753 746 741 738 736 736 734 729 722 720 724 729 731 730 730 733 735 736 740 740 741 745 750 748 744 744 742 745 757 755 746 742 737 735 734 732 731 729 732 734 732 726 726 724 715 716 716 716 734 741 735 737 735 730 726 719 715 716 719 723 728 734 736 738 742 747 751 752 754
784 782 780 780 778 777 776 775 774 773 772 772 771 768 758 753 755 755 754 749 740 735 735 733 732 730 725 721 720 723 728 732 732 728 729 732 735 740 739 740 746 747 744 741 742 745 751 755 747 737 734 732 732 730 731 733 733 737 738 738 737 731 727 722 716 712 714 731 741 737 740 737 728 725 722 718 717 715 715 720 726 729 733 737 742 746 748 752
783 781 780 779 777 776 775 774 773 772 771 770 768 763 757 755 755 754 753 751 740 730 728 728 729 728 725 724 722 725 729 730 731 727 725 731 734 735 736 740 743 741 740 742 742 749 755 749 737 732 730 731 734 730 731 734 734 740 742 743 743 734 733 734 724 716 717 724 734 738 740 737 729 724 721 718 715 713 710 712 717 720 724 729 733 737 742 748
782 780 780 777 776 775 773 772 771 769 767 766 764 759 756 756 755 755 753 750 741 728 721 720 721 723 724 722 721 727 731 726 725 723 723 729 732 732 734 735 739 740 737 736 737 742 744 733 725 727 729 731 734 732 734 740 741 741 742 742 741 734 733 733 724 721 723 726 731 741 750 745 734 731 726 716 714 715 711 709 713 717 717 719 725 732 737 742
781 780 779 777 776 773 772 771 767 765 764 762 761 756 756 757 755 756 754 751 742 725 716 714 715 717 716 718 720 722 727 726 721 717 718 724 727 730 732 729 734 739 735 732 734 736 733 721 715 722 727 727 732 733 735 744 748 744 739 737 736 733 731 729 726 726 733 739 733 739 764 759 735 731 730 720 717 718 713 710 713 716 715 714 719 727 732 738
780 779 777 776 775 772 772 769 764 763 761 758 757 755 757 757 755 757 755 754 742 720 715 716 715 715 712 715 718 720 730 729 718 713 715 720 721 723 730 728 728 733 729 726 729 730 726 718 713 720 724 725 731 735 734 739 749 749 735 728 732 733 734 733 731 733 740 745 732 728 754 759 737 728 724 718 718 717 713 712 714 716 716 714 715 722 729 734
779 778 777 776 774 773 772 766 764 763 758 756 755 756 758 756 757 757 755 761 745 716 714 718 715 714 713 713 715 725 735 725 714 714 712 717 719 718 728 729 727 729 722 723 732 726 721 722 719 722 726 729 736 739 733 732 745 747 729 722 727 728 731 732 733 740 741 742 736 727 737 751 746 731 718 713 715 715 713 712 711 714 717 715 715 721 727 730
778 777 776 775 773 774 772 768 766 762 758 757 756 758 758 756 759 756 760 767 739 706 708 714 712 712 711 712 715 722 723 712 717 719 707 713 719 718 728 726 724 726 718 725 737 723 716 724 722 724 731 734 735 734 727 728 739 737 723 721 723 720 723 726 732 741 738 744 752 737 732 750 752 732 719 716 716 716 716 712 709 713 717 715 715 721 725 728
777 776 775 773 772 771 770 770 767 762 760 759 759 760 757 758 758 754 765 761 721 699 707 711 713 714 711 714 717 718 714 709 714 713 706 713 717 717 725 722 719 722 717 723 730 718 713 718 715 721 733 733 730 726 722 725 732 727 720 722 724 725 727 730 737 739 739 751 758 743 734 748 751 731 722 726 726 724 720 714 711 712 715 716 718 724 726 731
775 774 774 773 771 769 769 768 764 761 761 760 761 760 758 761 758 761 771 751 712 701 707 710 714 714 712 718 720 717 714 711 708 706 709 714 716 718 719 716 716 718 714 717 723 716 709 710 711 717 724 724 723 720 718 719 722 721 723 725 729 733 734 739 739 738 751 761 751 737 731 743 752 735 723 729 731 728 723 721 720 718 719 721 725 730 731 734
774 773 773 772 771 770 768 765 761 761 761 761 761 760 760 760 757 765 760 727 707 707 707 711 712 708 713 719 719 718 715 712 708 710 714 715 718 723 723 721 723 724 721 720 723 720 714 714 715 713 712 715 720 720 716 715 717 723 728 733 741 745 743 748 745 746 766 769 746 731 724 734 751 739 726 729 726 724 727 728 730 729 729 730 733 736 736 736
772 771 771 770 769 769 767 761 759 761 762 762 762 760 761 762 761 761 740 712 713 713 703 707 708 705 711 713 712 713 715 714 710 710 714 717 721 724 726 727 727 736 739 730 726 726 722 717 714 713 712 715 724 727 723 720 721 728 732 740 756 762 759 763 761 757 765 758 738 727 724 734 745 737 731 734 728 725 728 729 730 731 732 734 739 742 739 738
770 769 768 767 767 766 763 761 761 762 762 762 763 758 760 764 757 745 728 714 715 708 695 696 701 703 707 709 708 705 710 712 709 712 713 715 722 722 722 721 718 731 738 728 727 730 730 722 713 714 717 717 724 730 733 729 726 731 735 743 759 767 772 775 767 762 761 749 732 723 727 739 746 743 738 736 733 730 728 728 729 731 733 735 739 742 741 741
768 767 765 764 764 762 760 762 762 763 764 763 762 759 763 766 747 726 719 710 703 700 695 692 697 703 704 706 702 696 706 711 704 711 715 714 722 724 722 720 715 720 726 727 727 726 736 737 719 712 714 717 721 723 724 721 721 727 726 732 746 752 762 767 762 763 761 750 739 733 736 743 751 753 742 734 734 731 730 732 732 734 737 736 736 740 743 745
764 763 761 760 760 758 757 761 762 763 765 762 760 759 761 759 739 721 715 704 697 699 698 694 700 709 708 705 699 691 700 708 701 707 714 714 720 721 718 719 715 714 721 731 728 719 729 732 713 705 706 711 719 717 712 715 722 721 718 730 739 734 738 747 748 750 753 756 752 744 743 744 747 748 739 734 737 735 735 737 736 739 740 739 741 742 744 747
761 760 759 757 756 754 755 759 760 763 763 760 760 757 750 740 725 718 713 704 702 701 700 705 709 713 712 707 702 694 695 702 703 706 711 710 713 713 711 711 710 711 715 724 724 721 731 728 707 704 708 705 711 713 709 716 722 718 720 731 728 717 722 739 746 742 749 767 760 742 745 750 748 748 740 738 742 741 742 743 742 744 743 742 746 747 749 753
761 758 756 754 752 752 754 757 759 762 761 758 757 749 736 723 710 709 711 709 707 703 707 717 712 710 713 707 701 697 697 704 706 707 710 710 708 706 705 704 703 705 707 710 715 715 726 732 713 705 712 705 702 707 708 708 711 718 725 722 715 715 718 729 748 753 757 768 757 739 746 756 758 757 749 745 749 749 748 749 748 748 749 751 754 755 757 760
761 758 753 749 749 751 752 756 758 759 758 756 754 743 730 719 707 705 711 711 710 709 714 719 710 703 706 705 700 695 697 707 710 709 710 709 706 700 698 701 698 698 699 703 711 710 717 734 722 703 708 706 698 707 716 709 704 711 717 710 714 732 735 732 747 759 763 767 760 744 743 756 764 760 753 752 755 755 755 757 757 756 757 760 761 760 760 761
762 759 752 746 747 749 751 755 756 755 755 754 750 740 729 720 710 707 712 714 713 714 718 716 708 703 701 702 701 694 697 707 711 714 713 709 709 702 695 696 695 695 695 697 708 710 713 734 733 706 700 705 704 711 721 719 710 708 711 710 713 725 732 732 736 745 753 762 763 752 750 767 773 762 757 757 754 757 763 767 767 764 763 766 766 765 765 766
760 758 752 745 746 749 751 754 754 753 753 747 741 731 719 713 709 709 713 715 714 716 718 713 709 707 704 702 701 696 698 706 709 715 714 707 710 706 696 693 693 693 692 693 701 707 712 733 741 717 700 709 715 713 717 718 714 717 722 722 721 719 721 727 729 731 740 753 760 757 762 777 774 762 761 760 757 759 764 768 769 767 767 770 771 770 770 770
756 757 752 744 747 749 750 753 752 748 746 740 733 723 714 710 710 711 714 716 715 714 715 715 714 713 710 708 705 699 702 707 709 713 715 712 716 714 703 698 695 693 696 698 700 705 712 727 739 729 715 717 715 705 705 708 705 711 719 721 722 720 723 737 743 735 733 743 751 759 776 786 774 764 764 763 763 764 764 767 769 768 770 772 773 774 773 772
755 757 749 743 747 748 748 750 745 741 739 733 725 717 714 716 716 714 714 716 718 716 714 716 717 717 716 714 710 705 706 710 709 710 714 717 722 721 710 704 701 698 702 705 701 700 706 718 732 734 722 714 707 697 698 701 698 701 707 710 713 714 720 738 750 745 739 740 742 751 774 787 774 764 768 768 768 768 768 769 770 770 771 772 773 775 775 773
753 754 746 744 747 745 747 746 739 737 733 724 718 714 714 719 720 718 716 716 718 717 717 718 718 717 717 714 712 711 712 714 712 710 713 718 722 720 712 708 709 708 710 715 711 703 707 720 732 735 724 712 704 697 697 698 698 702 704 703 708 711 713 720 729 738 745 747 749 757 771 780 771 761 764 768 770 772 773 771 771 773 773 773 775 777 776 774
751 750 745 745 747 746 750 746 737 734 728 721 723 720 716 718 719 717 718 717 715 717 721 720 717 716 716 713 714 715 716 720 721 715 715 721 722 718 714 712 716 719 723 728 725 717 719 726 733 740 741 733 723 719 718 711 705 707 706 705 708 706 707 715 719 730 744 747 751 765 776 777 767 760 763 768 772 776 777 774 773 775 776 777 777 778 778 776
751 751 747 745 745 746 751 746 738 734 726 723 729 726 721 722 720 717 719 717 714 717 722 722 717 715 715 715 718 718 714 719 724 717 717 724 724 719 719 718 719 724 727 728 724 721 725 727 732 743 751 751 748 744 737 727 720 719 714 712 714 705 708 727 735 739 749 747 742 756 773 776 768 764 768 770 774 779 780 777 778 779 780 781 781 780 781 780
750 751 749 746 745 746 746 742 738 735 727 727 733 730 726 727 721 718 721 721 718 718 722 722 718 718 720 720 723 724 717 716 719 717 719 728 729 725 725 727 728 727 728 728 724 723 728 729 731 738 744 750 754 749 740 733 732 734 729 723 723 715 713 729 742 747 752 757 757 755 761 773 775 770 770 773 776 781 783 783 784 784 785 785 785 784 784 784
751 749 744 743 745 745 741 736 732 729 725 728 733 730 727 728 725 723 725 723 720 721 722 722 720 723 727 726 728 730 724 718 716 714 718 727 731 729 730 736 739 734 730 730 726 727 737 739 736 738 741 744 748 750 750 746 739 738 740 736 734 729 723 728 743 749 749 761 778 773 762 768 774 769 770 776 780 784 787 788 788 788 787 788 788 788 788 789
750 749 742 736 737 737 736 731 725 724 725 727 729 729 730 730 729 730 729 724 720 721 727 729 725 723 724 723 727 732 730 726 723 719 722 731 735 735 736 740 742 736 734 736 733 732 740 744 742 743 745 743 744 747 749 745 740 742 747 747 746 744 740 742 751 754 752 761 775 775 768 768 772 773 776 780 784 788 790 790 789 789 790 790 790 790 791 792
747 749 742 732 729 729 729 726 724 726 728 727 728 731 733 732 731 730 727 727 727 723 726 733 731 722 719 719 724 729 731 735 737 732 732 737 743 745 747 749 745 737 736 742 739 734 741 748 746 745 749 747 746 750 752 748 746 748 749 751 755 757 755 754 758 759 759 764 766 767 772 776 780 784 784 783 785 788 790 791 791 791 793 793 793 794 794 794
748 747 739 729 726 726 727 726 726 728 729 729 731 732 731 731 732 730 725 728 735 730 726 730 730 723 719 718 723 729 732 735 740 739 736 739 745 749 751 753 750 742 739 741 741 738 744 752 748 745 750 751 747 753 760 758 755 756 756 756 759 766 767 761 759 762 766 769 770 773 782 788 788 787 786 786 788 790 793 796 796 797 796 796 797 797 797 797
745 741 735 731 728 728 728 727 726 729 730 731 732 732 732 732 731 731 727 723 728 733 731 730 729 726 724 722 725 731 731 731 736 735 732 734 737 740 742 743 742 743 741 740 741 740 743 748 747 746 753 753 748 752 759 763 763 763 766 767 765 772 778 769 762 765 770 772 775 776 782 789 791 789 789 791 793 796 800 802 802 803 802 801 801 801 801 802
744 740 733 731 731 729 727 725 726 730 731 730 731 731 734 732 726 729 735 729 721 724 727 727 730 733 734 733 733 731 728 730 734 731 729 730 727 727 732 733 732 736 738 739 742 741 740 744 745 747 755 754 748 750 758 768 775 775 777 779 773 772 778 775 769 768 769 772 776 776 778 785 790 791 795 800 802 804 807 806 807 808 808 808 808 807 807 807